ALCOMSAT 1

Last updated on Sun Dec 07 2025 00:02:49 GMT+0000 (Coordinated Universal Time)

1 43039U 17078A 25340.42181635 -.00000179 00000+0 00000+0 0 9992 2 43039 0.0626 124.8712 0003744 122.2704 315.3893 1.00270715 29361
UTC large
Height (km)
Speed (km/s)
/
Latitude / Longitude
Inclination (degrees)
Orbital Period (minutes)
Azimuth
Elevation
Range (km)
Doppler Factor

Next 0 passes for location: London (51.5072 / 0.1276)

Sorry there are no passes over London.